Hourly Data Report for June 24, 2017

FISHER BRANCH (AUT)
MANITOBA

51°05'00.100" N
97°33'16.200" W
253.00 m
50309J6
71442
WSZ

Download Data

Hourly Data (June 2017)
Hourly Data Report for June 24, 2017
TIME
LST
Temp Definition
°C
Dew Point Definition
°C
Rel Hum Definition
%
Precip. Amount Definition
mm

Wind Dir Definition
10's deg

Wind Spd Definition
km/h
Visibility Definition
km
Stn Press Definition
kPa
Hmdx Definition


Wind Chill Definition


Weather Definition


00:00 9.8 7.6 86 0.0 29 15   98.25     LegendNANA
01:00 9.4 8.2 92 0.0 28 14   98.21     LegendNANA
02:00 9.5 8.6 94 0.7 28 13   98.18     LegendNANA
03:00 9.7 9.0 95 0.7 28 10   98.17     LegendNANA
04:00 11.0 10.2 94 0.6 36 15   98.22     LegendNANA
05:00 10.0 9.2 95 2.0 35 19   98.32     LegendNANA
06:00 9.2 8.2 93 0.9 34 22   98.42     LegendNANA
07:00 8.6 7.6 93 0.6 34 21   98.50     LegendNANA
08:00 8.5 7.2 92 0.7 35 20   98.59     LegendNANA
09:00 8.9 7.0 88 0.6 35 18   98.65     LegendNANA
10:00 10.9 7.5 80 0.0 36 17   98.72     LegendNANA
11:00 12.7 6.8 67 0.0 36 16   98.77     LegendNANA
12:00 14.0 6.4 60 0.0 36 21   98.83     LegendNANA
13:00 14.5 5.9 56 0.0 36 17   98.87     LegendNANA
14:00 14.6 5.5 54 0.0 35 20   98.90     LegendNANA
15:00 14.6 4.9 52 0.0 35 20   98.99     LegendNANA
16:00 13.5 5.7 59 0.0 33 21   99.02     LegendNANA
17:00 13.3 5.3 59 0.0 33 23   99.06     LegendNANA
18:00 13.6 5.2 57 0.0 34 21   99.08     LegendNANA
19:00 13.6 5.2 57 0.0 34 16   99.09     LegendNANA
20:00 12.2 5.5 64 0.0 33 13   99.09     LegendNANA
21:00 9.1 5.1 76 0.0 32 7   99.14     LegendNANA
22:00 7.4 4.6 82 0.0 31 9   99.16     LegendNANA
23:00 7.5 5.3 86 0.0 31 9   99.17     LegendNANA

Notes on Data Quality.

Legend

  • E = Estimated
  • M = Missing
  • NA = Not Available*
  • [empty] = Indicates an unobserved value
Date modified: